Weather History for Antigo, WI

Change the Weather History Date:

Monday, June 2, 2014

  Actual Average Record
Temperature  
Mean Temperature 68 °F -  
Max Temperature 72 °F 71 °F 87 °F (1948)
Min Temperature 63 °F 44 °F 30 °F (1986)
Cooling Degree Days 2    
Growing Degree Days 18 (Base 50)    
Moisture  
Dew Point 63 °F    
Average Humidity 89    
Maximum Humidity 99    
Minimum Humidity 70    
Precipitation  
Precipitation 1.09 in - - ()
Sea Level Pressure  
Sea Level Pressure 29.71 in    
Wind  
Wind Speed 11 mph (SW)    
Max Wind Speed 18 mph    
Max Gust Speed 26 mph    
Visibility 9 miles    
Events Rain    
Averages and records for this station are not official NWS values.
T = Trace of Precipitation, MM = Missing Value Source: NWS Daily Summary

Daily Weather History Graph

Daily Weather History Graph

Search for Another Location

Airport:

Trip Planner

Search our weather history database for the weather conditions in past years. The results will help you decide how hot, cold, wet, or windy it might be!

Date:

Astronomy

Jun. 02, 2014 Rise Set
Actual Time 5:11 AM CDT 8:37 PM CDT
Civil Twilight 4:35 AM CDT 9:14 PM CDT
Nautical Twilight 3:47 AM CDT 10:02 PM CDT
Astronomical Twilight 2:46 AM CDT 11:03 PM CDT
Moon 9:46 AM CDT (6/2) 11:57 PM CDT (6/2)
Length of Visible Light 16h 38m
Length of Day
15h 25m
Waxing Crescent, 22% of the Moon is Illuminated
Jun 2
Waxing Crescent
Jun 5
First Quarter
Jun 12
Full
Jun 19
Last Quarter
Jun 27
New

Hourly Weather History & Observations

Time (CDT) Temp. Dew Point Humidity Pressure Visibility Wind Dir Wind Speed Gust Speed Precip Events Conditions
12:15 AM 64.6 °F 63.7 °F 97% 29.84 in 10.0 mi South 8.1 mph - N/A   Overcast
12:35 AM 64.6 °F 63.5 °F 96% 29.84 in 10.0 mi South 8.1 mph - N/A   Overcast
12:55 AM 64.6 °F 63.5 °F 96% 29.84 in 10.0 mi South 10.4 mph - N/A   Overcast
1:15 AM 64.6 °F 63.7 °F 97% 29.83 in 10.0 mi South 8.1 mph - N/A   Overcast
1:35 AM 64.8 °F 63.9 °F 97% 29.83 in 10.0 mi South 5.8 mph - N/A   Overcast
1:55 AM 64.8 °F 63.9 °F 97% 29.82 in 10.0 mi South 6.9 mph - N/A   Overcast
2:15 AM 64.8 °F 64.0 °F 98% 29.81 in 10.0 mi South 13.8 mph - N/A Rain Light Rain
2:35 AM 64.6 °F 64.0 °F 98% 29.80 in 7.0 mi South 9.2 mph - 0.03 in Rain Light Rain
2:55 AM 64.8 °F 64.2 °F 98% 29.78 in 10.0 mi South 6.9 mph - 0.05 in Rain Rain
3:15 AM 64.9 °F 64.4 °F 98% 29.78 in 5.0 mi South 8.1 mph - 0.12 in Rain Heavy Rain
3:35 AM 64.6 °F 64.4 °F 99% 29.77 in 10.0 mi South 6.9 mph - 0.13 in Rain Light Rain
3:55 AM 64.8 °F 64.4 °F 99% 29.78 in 10.0 mi South 10.4 mph - 0.13 in   Overcast
4:15 AM 64.8 °F 64.4 °F 99% 29.76 in 5.0 mi South 10.4 mph - 0.05 in Rain Rain
4:35 AM 64.9 °F 64.6 °F 99% 29.75 in 10.0 mi South 10.4 mph - 0.06 in   Light Drizzle
4:55 AM 64.9 °F 64.6 °F 99% 29.74 in 10.0 mi SSE 9.2 mph - 0.06 in   Overcast
5:15 AM 64.9 °F 64.6 °F 99% 29.74 in 10.0 mi SSE 10.4 mph - N/A   Overcast
5:35 AM 65.1 °F 64.8 °F 99% 29.73 in 7.0 mi South 12.7 mph 18.4 mph N/A   Overcast
5:55 AM 65.3 °F 64.8 °F 98% 29.74 in 10.0 mi South 12.7 mph - N/A   Overcast
6:15 AM 65.3 °F 64.8 °F 98% 29.74 in 10.0 mi South 12.7 mph - N/A   Overcast
6:35 AM 65.7 °F 64.9 °F 98% 29.73 in 10.0 mi South 13.8 mph 18.4 mph N/A   Overcast
6:55 AM 65.7 °F 64.9 °F 98% 29.73 in 10.0 mi South 12.7 mph 18.4 mph N/A   Overcast
7:15 AM 65.7 °F 64.8 °F 97% 29.71 in 10.0 mi South 11.5 mph 17.3 mph N/A   Overcast
7:35 AM 65.8 °F 65.1 °F 98% 29.70 in 10.0 mi South 10.4 mph - N/A   Overcast
7:55 AM 66.2 °F 65.3 °F 97% 29.71 in 10.0 mi South 12.7 mph 17.3 mph N/A   Overcast
8:15 AM 66.0 °F 65.3 °F 98% 29.70 in 4.0 mi South 8.1 mph - 0.03 in Rain Rain
8:35 AM 65.8 °F 65.5 °F 99% 29.70 in 1.0 mi SSW 10.4 mph - 0.42 in Rain Heavy Rain
8:55 AM 64.9 °F 64.6 °F 99% 29.70 in 2.5 mi SW 6.9 mph - 0.63 in Rain Heavy Rain
9:15 AM 65.1 °F 64.6 °F 98% 29.70 in 4.0 mi SW 11.5 mph - 0.05 in Rain Rain
9:35 AM 65.3 °F 64.8 °F 98% 29.68 in 4.0 mi WSW 8.1 mph - 0.13 in Rain Rain
9:55 AM 65.5 °F 64.8 °F 98% 29.69 in 10.0 mi WSW 10.4 mph - 0.15 in Rain Light Rain
10:15 AM 65.5 °F 64.6 °F 97% 29.68 in 10.0 mi WSW 9.2 mph - 0.01 in Rain Light Rain
10:35 AM 65.5 °F 64.4 °F 96% 29.68 in 10.0 mi WSW 10.4 mph - 0.02 in Rain Light Rain
10:55 AM 65.5 °F 64.4 °F 96% 29.68 in 10.0 mi WSW 11.5 mph - 0.03 in Rain Light Rain
11:15 AM 66.4 °F 64.2 °F 93% 29.68 in 10.0 mi WSW 11.5 mph - N/A   Mostly Cloudy
11:55 AM 69.6 °F 64.2 °F 83% 29.68 in 10.0 mi West 17.3 mph 20.7 mph N/A   Mostly Cloudy
12:15 PM 68.5 °F 63.3 °F 83% 29.69 in 10.0 mi SW 16.1 mph - N/A   Mostly Cloudy
12:35 PM 67.6 °F 63.3 °F 86% 29.68 in 10.0 mi WSW 13.8 mph - N/A   Overcast
1:15 PM 68.9 °F 63.3 °F 82% 29.67 in 10.0 mi SW 18.4 mph 24.2 mph N/A   Overcast
1:35 PM 68.2 °F 63.0 °F 83% 29.67 in 10.0 mi SW 17.3 mph 23.0 mph N/A   Overcast
1:55 PM 66.4 °F 64.0 °F 92% 29.67 in 3.0 mi WSW 15.0 mph - N/A   Overcast
2:15 PM 67.5 °F 64.6 °F 90% 29.67 in 10.0 mi WSW 17.3 mph 21.9 mph N/A   Overcast
2:55 PM 67.1 °F 64.8 °F 92% 29.67 in 5.0 mi WSW 16.1 mph - 0.04 in Rain Heavy Rain
3:15 PM 68.4 °F 65.8 °F 92% 29.67 in 10.0 mi WSW 17.3 mph - N/A   Overcast
3:35 PM 70.3 °F 65.1 °F 83% 29.67 in 10.0 mi West 15.0 mph 24.2 mph N/A   Overcast
3:55 PM 72.0 °F 65.8 °F 81% 29.66 in 10.0 mi West 15.0 mph - N/A   Overcast
4:15 PM 72.5 °F 63.9 °F 74% 29.67 in 10.0 mi West 16.1 mph 24.2 mph N/A   Mostly Cloudy
4:55 PM 72.5 °F 64.0 °F 75% 29.66 in 10.0 mi WSW 15.0 mph 20.7 mph N/A   Mostly Cloudy
5:15 PM 72.7 °F 63.1 °F 72% 29.66 in 10.0 mi WSW 16.1 mph 24.2 mph N/A   Mostly Cloudy
5:55 PM 66.4 °F 58.5 °F 76% 29.68 in 10.0 mi WNW 16.1 mph 23.0 mph N/A   Overcast
6:15 PM 69.1 °F 60.3 °F 73% 29.66 in 10.0 mi WSW 5.8 mph - N/A   Mostly Cloudy
6:35 PM 70.5 °F 61.0 °F 72% 29.65 in 10.0 mi SW 6.9 mph - N/A   Clear
6:55 PM 69.4 °F 61.7 °F 76% 29.65 in 10.0 mi SSW 5.8 mph - N/A   Mostly Cloudy
7:15 PM 70.5 °F 62.1 °F 74% 29.66 in 10.0 mi WSW 12.7 mph 16.1 mph N/A   Mostly Cloudy
7:35 PM 70.9 °F 60.8 °F 70% 29.66 in 10.0 mi WSW 11.5 mph - N/A   Mostly Cloudy
7:55 PM 69.4 °F 60.6 °F 73% 29.66 in 10.0 mi SW 9.2 mph 16.1 mph N/A   Scattered Clouds
8:15 PM 68.2 °F 60.8 °F 77% 29.66 in 10.0 mi SW 9.2 mph - N/A   Scattered Clouds
8:35 PM 67.3 °F 60.8 °F 80% 29.66 in 10.0 mi SW 10.4 mph - N/A   Scattered Clouds
8:55 PM 66.6 °F 60.8 °F 82% 29.66 in 10.0 mi SW 9.2 mph - N/A   Scattered Clouds
9:15 PM 65.7 °F 60.8 °F 84% 29.67 in 10.0 mi SW 8.1 mph - N/A   Clear
9:35 PM 65.7 °F 60.8 °F 84% 29.68 in 10.0 mi SW 10.4 mph - N/A   Clear
10:15 PM 66.6 °F 57.2 °F 72% 29.69 in 10.0 mi West 13.8 mph 23.0 mph N/A   Clear
10:35 PM 65.5 °F 56.1 °F 72% 29.69 in 10.0 mi WSW 17.3 mph 23.0 mph N/A   Clear
10:55 PM 64.4 °F 55.8 °F 73% 29.69 in 10.0 mi WSW 16.1 mph 23.0 mph N/A   Clear
11:15 PM 63.9 °F 56.1 °F 76% 29.68 in 10.0 mi WSW 13.8 mph 20.7 mph N/A   Clear
11:35 PM 63.3 °F 55.6 °F 76% 29.68 in 10.0 mi WSW 15.0 mph 21.9 mph N/A   Clear
11:55 PM 63.1 °F 55.4 °F 76% 29.68 in 10.0 mi WSW 17.3 mph 26.5 mph N/A   Clear